User: anonymous   Login
Location: Theydon Bois
(51.6750°N, 0.1050°E)
Time: 03:49:51
(UTC+01:00)
Language:

Cosmos 1420 Rocket - Orbit

View from above orbital plane
View from above orbital plane
View from above satellite
View from above satellite

Ground track
Ground track

The orbit data is extracted from the following two-line orbital elements,

1 13649U 82109B   17294.60847363 +.00000127 +00000-0 +51784-4 0  9992
2 13649 073.9984 139.1103 0019603 266.3230 154.8007 14.37078456829508
Epoch (UTC): 21 October 2017 14:36:12
Eccentricity: 0.0019603
inclination: 73.9984°
perigee height: 754 km
apogee height: 782 km
right ascension of ascending node: 139.1103°
argument of perigee: 266.3230°
revolutions per day: 14.37078456
mean anomaly at epoch: 154.8007°
orbit number at epoch: 82950

The dashed part of the orbit path shows where the satellite is in the earth's shadow,  

DLR